When you browse on this site, cookies collect data to enhance your experience and personalize the content and advertising you see.
Visit our Privacy Policy to learn more. By continuing to use the site, you agree to this use of cookies and data.
  • In Portugal
  • List of Countries
  • For 7 days
  • Water Temperature
  • Satellite Maps
  • Weather Map
  • Weather Widgets
  • user-avatar
    Login

    Hourly Weather Semikino

    Today, 24 April, Wednesday

    Time Temperature Precipitation Wind Pressure Humidity
    00:00 +13°C° 0 mm 2 mps 758 mmHg 60%
    01:00 +12°C° 0 mm 2 mps 758 mmHg 64%
    02:00 +10°C° 0 mm 2 mps 758 mmHg 68%
    03:00 +9°C° 0 mm 2 mps 758 mmHg 71%
    04:00 +9°C° 0 mm 2 mps 758 mmHg 73%
    05:00 +9°C° 0 mm 2 mps 758 mmHg 74%
    06:00 +9°C° 0 mm 2 mps 758 mmHg 75%
    07:00 +12°C° 0 mm 2 mps 759 mmHg 68%
    08:00 +14°C° 0 mm 2 mps 759 mmHg 61%
    09:00 +16°C° 0 mm 3 mps 759 mmHg 54%
    10:00 +17°C° 0 mm 3 mps 759 mmHg 49%
    11:00 +18°C° 0 mm 3 mps 759 mmHg 44%
    12:00 +20°C° 0 mm 3 mps 759 mmHg 39%
    13:00 +20°C° 0 mm 3 mps 758 mmHg 38%
    14:00 +21°C° 0 mm 3 mps 758 mmHg 37%
    15:00 +21°C° 0 mm 4 mps 758 mmHg 36%
    16:00 +21°C° 0 mm 3 mps 758 mmHg 39%
    17:00 +21°C° 0 mm 3 mps 758 mmHg 43%
    18:00 +20°C° 0 mm 2 mps 758 mmHg 46%
    19:00 +19°C° 0 mm 2 mps 758 mmHg 50%
    20:00 +17°C° 0 mm 2 mps 758 mmHg 54%
    21:00 +16°C° 0 mm 2 mps 758 mmHg 58%
    22:00 +15°C° 0 mm 2 mps 758 mmHg 59%
    23:00 +14°C° 0 mm 2 mps 758 mmHg 61%

    Tomorrow, 25 April, Thursday

    Time Temperature Precipitation Wind Pressure Humidity
    00:00 +14°C° 0 mm 2 mps 758 mmHg 63%
    01:00 +13°C° 0 mm 2 mps 758 mmHg 64%
    02:00 +13°C° 0 mm 2 mps 758 mmHg 66%
    03:00 +12°C° 0 mm 2 mps 758 mmHg 67%
    04:00 +12°C° 0 mm 2 mps 758 mmHg 68%
    05:00 +12°C° 0 mm 2 mps 758 mmHg 69%
    06:00 +12°C° 0 mm 2 mps 758 mmHg 71%
    07:00 +14°C° 0 mm 2 mps 758 mmHg 64%
    08:00 +16°C° 0 mm 3 mps 758 mmHg 58%
    09:00 +18°C° 0 mm 3 mps 759 mmHg 51%
    10:00 +20°C° 0 mm 3 mps 758 mmHg 47%
    11:00 +21°C° 0 mm 4 mps 758 mmHg 42%
    12:00 +22°C° 0 mm 4 mps 758 mmHg 38%
    13:00 +23°C° 0 mm 4 mps 758 mmHg 37%
    14:00 +23°C° 0 mm 4 mps 758 mmHg 36%
    15:00 +23°C° 0 mm 4 mps 758 mmHg 35%
    16:00 +24°C° 0 mm 3 mps 757 mmHg 38%
    17:00 +22°C° 0 mm 3 mps 757 mmHg 40%
    18:00 +23°C° 0 mm 2 mps 757 mmHg 43%
    19:00 +20°C° 0 mm 2 mps 757 mmHg 47%
    20:00 +18°C° 0 mm 2 mps 757 mmHg 50%
    21:00 +17°C° 0 mm 2 mps 757 mmHg 54%
    22:00 +16°C° 0 mm 2 mps 757 mmHg 54%
    23:00 +15°C° 0 mm 2 mps 757 mmHg 55%

    Day after tomorrow, 26 April, Friday

    Time Temperature Precipitation Wind Pressure Humidity
    00:00 +14°C° 0 mm 2 mps 757 mmHg 55%
    01:00 +14°C° 0 mm 2 mps 757 mmHg 53%
    02:00 +13°C° 0 mm 2 mps 757 mmHg 52%
    03:00 +13°C° 0 mm 2 mps 757 mmHg 50%
    04:00 +13°C° 0 mm 2 mps 757 mmHg 53%
    05:00 +12°C° 0 mm 2 mps 757 mmHg 55%
    06:00 +12°C° 0 mm 2 mps 757 mmHg 57%
    07:00 +14°C° 0 mm 2 mps 757 mmHg 54%
    08:00 +16°C° 0 mm 2 mps 757 mmHg 50%
    09:00 +18°C° 0 mm 2 mps 757 mmHg 47%
    10:00 +19°C° 0 mm 2 mps 757 mmHg 43%
    11:00 +20°C° 0 mm 2 mps 757 mmHg 40%
    12:00 +21°C° 0 mm 2 mps 757 mmHg 36%
    13:00 +23°C° 0 mm 2 mps 757 mmHg 35%
    14:00 +23°C° 0 mm 2 mps 757 mmHg 34%
    15:00 +23°C° 0 mm 1 mps 756 mmHg 33%
    16:00 +23°C° 0 mm 1 mps 756 mmHg 36%
    17:00 +22°C° 0 mm 1 mps 756 mmHg 39%
    18:00 +20°C° 0 mm 0 mps 756 mmHg 42%
    19:00 +20°C° 0 mm 1 mps 756 mmHg 46%
    20:00 +19°C° 0 mm 1 mps 756 mmHg 49%
    21:00 +16°C° 0 mm 2 mps 756 mmHg 52%
    22:00 +16°C° 0 mm 2 mps 755 mmHg 56%
    23:00 +15°C° 0 mm 2 mps 755 mmHg 59%

    27 April, Saturday

    Time Temperature Precipitation Wind Pressure Humidity
    00:00 +14°C° 0 mm 2 mps 755 mmHg 62%
    01:00 +14°C° 0 mm 2 mps 755 mmHg 65%
    02:00 +14°C° 0 mm 2 mps 754 mmHg 68%
    03:00 +14°C° 0 mm 2 mps 754 mmHg 71%
    04:00 +13°C° 0 mm 2 mps 754 mmHg 75%
    05:00 +13°C° 0 mm 2 mps 753 mmHg 79%
    06:00 +13°C° 0 mm 2 mps 753 mmHg 84%
    07:00 +14°C° 0 mm 3 mps 753 mmHg 77%
    08:00 +17°C° 0 mm 3 mps 753 mmHg 71%
    09:00 +19°C° 0 mm 4 mps 752 mmHg 64%
    10:00 +20°C° 0.2 mm 4 mps 752 mmHg 57%
    11:00 +21°C° 0.2 mm 4 mps 752 mmHg 50%
    12:00 +22°C° 0.2 mm 4 mps 751 mmHg 43%
    13:00 +22°C° 0 mm 4 mps 751 mmHg 43%
    14:00 +21°C° 0 mm 4 mps 750 mmHg 44%
    15:00 +21°C° 0 mm 4 mps 750 mmHg 45%
    16:00 +20°C° 0 mm 3 mps 750 mmHg 49%
    17:00 +20°C° 0 mm 3 mps 750 mmHg 52%
    18:00 +19°C° 0 mm 2 mps 749 mmHg 56%
    19:00 +18°C° 0 mm 2 mps 749 mmHg 58%
    20:00 +17°C° 0 mm 2 mps 749 mmHg 61%
    21:00 +16°C° 0 mm 3 mps 749 mmHg 64%
    22:00 +15°C° 0.5 mm 2 mps 748 mmHg 69%
    23:00 +15°C° 0.5 mm 2 mps 748 mmHg 75%

    28 April, Sunday

    Time Temperature Precipitation Wind Pressure Humidity
    00:00 +15°C° 0.5 mm 2 mps 748 mmHg 80%
    01:00 +14°C° 0.2 mm 2 mps 748 mmHg 83%
    02:00 +14°C° 0.2 mm 2 mps 748 mmHg 86%
    03:00 +14°C° 0.2 mm 2 mps 747 mmHg 88%
    04:00 +13°C° 0.5 mm 2 mps 747 mmHg 89%
    05:00 +13°C° 0.5 mm 2 mps 747 mmHg 90%
    06:00 +13°C° 0.5 mm 2 mps 747 mmHg 91%
    07:00 +13°C° 0.4 mm 2 mps 747 mmHg 89%
    08:00 +14°C° 0.4 mm 2 mps 747 mmHg 86%
    09:00 +14°C° 0.4 mm 3 mps 747 mmHg 83%
    10:00 +13°C° 0.4 mm 3 mps 747 mmHg 85%
    11:00 +12°C° 0.4 mm 4 mps 747 mmHg 86%
    12:00 +12°C° 0.4 mm 4 mps 748 mmHg 88%
    13:00 +13°C° 0 mm 5 mps 748 mmHg 79%
    14:00 +14°C° 0 mm 5 mps 748 mmHg 70%
    15:00 +15°C° 0 mm 5 mps 749 mmHg 62%
    16:00 +14°C° 0 mm 5 mps 749 mmHg 60%
    17:00 +14°C° 0 mm 5 mps 749 mmHg 59%
    18:00 +13°C° 0 mm 5 mps 750 mmHg 57%
    19:00 +10°C° 0 mm 5 mps 751 mmHg 59%
    20:00 +10°C° 0 mm 4 mps 751 mmHg 60%
    21:00 +7°C° 0 mm 4 mps 752 mmHg 61%
    22:00 +6°C° 0 mm 4 mps 753 mmHg 61%
    23:00 +5°C° 0 mm 4 mps 753 mmHg 61%

    29 April, Monday

    Time Temperature Precipitation Wind Pressure Humidity
    00:00 +5°C° 0 mm 3 mps 754 mmHg 61%
    01:00 +4°C° 0 mm 3 mps 754 mmHg 62%
    02:00 +3°C° 0 mm 3 mps 754 mmHg 63%
    03:00 +3°C° 0 mm 3 mps 755 mmHg 64%
    04:00 +3°C° 0 mm 3 mps 755 mmHg 64%
    05:00 +2°C° 0 mm 3 mps 755 mmHg 64%
    06:00 +2°C° 0 mm 3 mps 756 mmHg 64%
    07:00 +4°C° 0 mm 3 mps 756 mmHg 57%
    08:00 +5°C° 0 mm 4 mps 756 mmHg 49%
    09:00 +7°C° 0 mm 4 mps 757 mmHg 42%
    10:00 +7°C° 0 mm 4 mps 757 mmHg 40%
    11:00 +8°C° 0 mm 4 mps 757 mmHg 38%
    12:00 +10°C° 0 mm 4 mps 757 mmHg 36%
    13:00 +10°C° 0 mm 4 mps 756 mmHg 35%
    14:00 +10°C° 0 mm 4 mps 756 mmHg 35%
    15:00 +11°C° 0 mm 3 mps 756 mmHg 34%
    16:00 +10°C° 0 mm 3 mps 756 mmHg 35%
    17:00 +10°C° 0 mm 3 mps 756 mmHg 37%
    18:00 +10°C° 0 mm 3 mps 755 mmHg 38%
    19:00 +8°C° 0 mm 2 mps 756 mmHg 42%
    20:00 +7°C° 0 mm 2 mps 756 mmHg 46%
    21:00 +6°C° 0 mm 1 mps 756 mmHg 50%
    22:00 +6°C° 0 mm 1 mps 756 mmHg 51%
    23:00 +5°C° 0 mm 1 mps 756 mmHg 52%
    Show more